STARLINK-1080, 44961

Orbit data source: Space-Track

STARLINK-1080, 44961 is a payload satellite owned by SpaceX/Seattle (US) in LEO that was launched on Tue, 07 Jan 2020 UTC via an FALCON 9 launch vehicle from the Air Force Eastern Test Range (AFETR). Payload-class satellites include a variety of spacecraft equipped with specific instruments for various scientific and technological missions. These include communications satellites like Starlink; space stations such as the ISS; scientific satellites like the Hubble; Earth observation satellites from companies like Planet Labs, Umbra, and HawkEye 360; GPS; miniature CubeSats for education and research; and military/defense satellites.

Loading next visibility...
Identifier
44961, 2020-001AZ
Orbit
LEO
Country
Flag of USUS
Related business
Manufacturer
SpaceX/Seattle
Mission
Operational Commercial Communications
Bus & Motor
STARLINK, Unknown motor
Mass
260 kg wet, ~248 kg dry
Launch date (UTC)
2020-01-07 (6 years ago)
Launch vehicle
FALCON 9
Launch site
Air Force Eastern Test Range (AFETR)
Object type
Payload
Rocket body
Debris
Shape & HBR
Box + 1 Pan, 4.4 m
Radar Cross Section
13.562 m², Large (>1 m²)

Expand to show TLE details & history
Last TLE update: 11 hours ago

TLE from 11 hours ago
0 STARLINK-1080
1 44961U 20001AZ  25258.60071743  .00000849  00000-0  75902-4 0  9995
2 44961  53.0557  12.6238 0001060  98.2601 261.8508 15.06391747314029
Epoch: 2025-09-15T14:25Z
TLE epoch observation values (Epoch: 2025-09-15T14:25:01.985Z)
Latitude
-0.00006°
Longitude
161.56244°
Altitude
548.22 km
Speed
7.589 km/s
True Right ascension
00h 50m 29s
True Declination
0° 00' 00"
Sunlit
Object was in full shadow at epoch
Visualization orbit readout
Latitude
Unknown
Longitude
Unknown
Altitude
Unknown
Speed
Unknown
Apparent Right ascension
Unknown
Apparent Declination
Unknown
Sunlit
N/A
Visualization observer readout
Local Sidereal Time
18:20:38
Azimuth
Unknown
Elevation
Unknown
Doppler factor
Unknown
Orbital elements
Apogee altitude
548.241 km
Perigee altitude
546.773 km
Semi-major axis
6,925.644 km
Eccentricity
0.00011
Inclination
53.0557°
RAAN
12.6238°
Arg. of periapsis
98.2601°
True anomaly
261.83878°
Mean anomaly
261.8508°
Eccentric anomaly
261.84479°
Mean motion
3.76576 °/min
Orbital period
95.6 mins
BSTAR
0.000075902
Loading maneuver chart data...
Computing Atmospheric mass density...

Documentation

Showing up to 5 results
|